W1JCN Weather Reports


Display with metric or nautical units.
time (UTC)temp
F
wind
direction
speed
MPH
gust
MPH
rain 1hr
in
rain 24hr
in
rain mn
in
humidity
%
barometer
mb
20260506061206 55 171 0.0 1.0 0.00 0.00 0.00 85 1006.6
20260506050905 58 174 0.0 2.0 0.00 0.00 0.00 83 1006.7
20260506045106 58 176 0.0 2.0 0.00 0.00 0.00 84 1006.9
20260506044205 58 174 0.0 2.0 0.00 0.00 0.00 85 1006.8
20260506042405 57 181 0.0 3.0 0.00 0.00 0.00 86 1006.6
20260506040605 58 196 0.0 4.0 0.00 0.00 0.00 86 1006.3
20260506035705 58 200 0.0 2.0 0.00 0.00 0.00 87 1006.7
20260506034805 58 0 0.0 0.0 0.00 0.00 0.00 88 1006.5
20260506033006 57 0 0.0 0.0 0.00 0.00 0.00 90 1006.7
20260506032105 57 200 0.0 3.0 0.00 0.00 0.00 90 1006.8
20260506030305 57 212 0.0 1.0 0.00 0.00 0.00 91 1006.7
20260506025405 57 0 0.0 0.0 0.00 0.00 0.00 91 1006.4
20260506024505 57 222 0.0 3.0 0.00 0.00 0.00 91 1006.8
20260506023605 57 0 0.0 0.0 0.00 0.00 0.00 91 1006.6
20260506022705 57 0 0.0 0.0 0.00 0.00 0.00 91 1006.7
20260506021805 57 0 0.0 0.0 0.00 0.00 0.00 91 1006.7
20260506020005 57 0 0.0 0.0 0.00 0.00 0.00 90 1006.6
20260506015105 57 0 0.0 0.0 0.00 0.00 0.00 89 1006.6
20260506013305 58 0 0.0 0.0 0.00 0.00 0.00 88 1006.2
20260506012405 59 0 0.0 0.0 0.00 0.00 0.00 87 1006.2
20260506011505 60 0 0.0 0.0 0.00 0.00 0.00 86 1006.0
20260506010605 60 0 0.0 0.0 0.00 0.00 0.00 83 1005.8
20260506005705 60 0 0.0 0.0 0.00 0.00 0.00 81 1006.1
20260506004805 61 0 0.0 0.0 0.00 0.00 0.00 80 1006.0
20260506003905 61 0 0.0 0.0 0.00 0.00 0.00 79 1006.2
20260506003005 61 0 0.0 0.0 0.00 0.00 0.00 78 1006.0
20260506002105 61 0 0.0 0.0 0.00 0.00 0.00 77 1006.0
20260506001205 62 0 0.0 0.0 0.00 0.00 0.00 79 1005.7
20260506000305 62 0 0.0 0.0 0.00 0.00 0.00 78 1005.7
20260505235405 62 0 0.0 0.0 0.00 0.00 0.00 76 1005.7
20260505234505 62 0 0.0 0.0 0.00 0.00 0.00 77 1005.6
20260505233605 62 0 0.0 0.0 0.00 0.00 0.00 76 1005.4
20260505232705 63 278 0.0 1.0 0.00 0.00 0.00 75 1005.4
20260505231805 63 0 0.0 0.0 0.00 0.00 0.00 76 1005.6
20260505225105 63 277 0.0 3.0 0.00 0.00 0.00 74 1004.8
20260505223305 64 284 1.0 8.0 0.00 0.00 0.00 70 1004.5
20260505222404 65 304 1.0 6.0 0.00 0.00 0.00 68 1004.1
20260505221506 66 286 1.0 8.0 0.00 0.00 0.00 68 1003.9
20260505215704 67 322 1.0 8.0 0.00 0.00 0.00 61 1003.2
20260505214805 68 309 1.0 6.0 0.00 0.00 0.00 62 1003.2
20260505213905 68 314 1.0 5.0 0.00 0.00 0.00 59 1003.2
20260505213005 70 299 2.0 9.0 0.00 0.00 0.00 54 1003.5
20260505212104 73 299 2.0 8.0 0.00 0.00 0.00 48 1003.3
20260505211205 74 243 2.0 5.0 0.00 0.00 0.00 39 1003.0
20260505204745 75 204 2.0 14.0 0.00 0.00 0.00 38 1001.9
20260505202945 76 207 1.0 7.0 0.00 0.00 0.00 38 1001.7
20260505202045 76 224 1.0 9.0 0.00 0.00 0.00 38 1001.9
20260505200245 76 193 2.0 22.0 0.00 0.00 0.00 39 1002.2
20260505195345 76 210 2.0 5.0 0.00 0.00 0.00 42 1002.1
20260505194445 75 197 1.0 14.0 0.00 0.00 0.00 41 1002.3
20260505193545 76 178 1.0 7.0 0.00 0.00 0.00 41 1002.3
20260505192645 76 184 2.0 13.0 0.00 0.00 0.00 40 1002.5
20260505191745 77 195 1.0 6.0 0.00 0.00 0.00 40 1002.6
20260505190845 77 206 2.0 6.0 0.00 0.00 0.00 39 1002.5
20260505185945 77 211 2.0 15.0 0.00 0.00 0.00 39 1002.5
20260505185045 77 187 1.0 17.0 0.00 0.00 0.00 39 1002.5
20260505184145 76 205 1.0 9.0 0.00 0.00 0.00 41 1002.7
20260505183245 77 194 2.0 14.0 0.00 0.00 0.00 41 1003.1
20260505181445 78 186 2.0 9.0 0.00 0.00 0.00 38 1003.3
20260505175645 76 192 1.0 8.0 0.00 0.00 0.00 43 1003.4
20260505174745 76 200 2.0 9.0 0.00 0.00 0.00 40 1003.6
20260505173844 76 206 2.0 8.0 0.00 0.00 0.00 42 1003.7
20260505172945 76 207 1.0 11.0 0.00 0.00 0.00 41 1003.7
20260505172045 77 181 2.0 9.0 0.00 0.00 0.00 40 1003.7
20260505171145 78 196 2.0 14.0 0.00 0.00 0.00 40 1004.0
20260505170245 78 218 2.0 7.0 0.00 0.00 0.00 42 1004.0
20260505165345 77 214 1.0 8.0 0.00 0.00 0.00 44 1004.0
20260505164445 76 189 1.0 8.0 0.00 0.00 0.00 45 1004.2
20260505163544 76 227 2.0 5.0 0.00 0.00 0.00 46 1004.3
20260505160845 75 194 2.0 10.0 0.00 0.00 0.00 44 1004.9
20260505152345 72 200 2.0 6.0 0.00 0.00 0.00 49 1006.0
20260505151445 72 200 1.0 6.0 0.00 0.00 0.00 54 1006.1
20260505150545 70 208 1.0 5.0 0.00 0.00 0.00 51 1006.2
20260505140244 63 231 1.0 7.0 0.00 0.00 0.00 62 1006.3
20260505124144 55 185 1.0 5.0 0.00 0.00 0.00 73 1006.2
20260505123244 54 161 1.0 4.0 0.00 0.00 0.00 74 1006.1
20260505122344 54 173 0.0 4.0 0.00 0.00 0.00 73 1006.2
20260505121444 54 177 0.0 3.0 0.00 0.00 0.00 75 1006.2
20260505120544 54 167 1.0 4.0 0.00 0.00 0.00 74 1005.8
20260505115644 53 185 1.0 4.0 0.00 0.00 0.00 75 1006.3
20260505114744 52 177 1.0 4.0 0.00 0.00 0.00 76 1006.6
20260505112944 51 189 1.0 4.0 0.00 0.00 0.00 78 1006.5
20260505112044 50 209 0.0 3.0 0.00 0.00 0.00 80 1006.3
20260505111144 50 193 0.0 3.0 0.00 0.00 0.00 80 1006.1
20260505110244 49 186 0.0 2.0 0.00 0.00 0.00 81 1006.1
20260505101744 47 171 0.0 2.0 0.00 0.00 0.00 83 1005.6
20260505100844 47 178 0.0 3.0 0.00 0.00 0.00 83 1005.7
20260505095944 47 0 0.0 0.0 0.00 0.00 0.00 83 1005.8
20260505095044 47 0 0.0 0.0 0.00 0.00 0.00 82 1005.7
20260505094144 47 0 0.0 0.0 0.00 0.00 0.00 82 1005.7
20260505093244 48 184 0.0 2.0 0.00 0.00 0.00 82 1005.8
20260505091444 48 0 0.0 0.0 0.00 0.00 0.00 82 1006.0
20260505090544 48 0 0.0 0.0 0.00 0.00 0.00 81 1006.0
20260505083843 48 0 0.0 0.0 0.00 0.00 0.00 81 1006.1
20260505082944 48 184 0.0 5.0 0.00 0.00 0.00 81 1006.1
20260505082044 48 182 0.0 2.0 0.00 0.00 0.00 80 1006.0
20260505080244 48 186 0.0 2.0 0.00 0.00 0.00 79 1006.1
20260505075343 49 198 0.0 6.0 0.00 0.00 0.00 79 1006.1
20260505074444 49 198 0.0 6.0 0.00 0.00 0.00 79 1006.1
20260505073544 49 192 0.0 4.0 0.00 0.00 0.00 79 1006.1
20260505072644 49 194 0.0 3.0 0.00 0.00 0.00 80 1006.1
20260505071743 48 191 0.0 2.0 0.00 0.00 0.00 80 1006.1
20260505065944 48 188 0.0 1.0 0.00 0.00 0.00 81 1006.3
20260505065043 48 187 0.0 1.0 0.00 0.00 0.00 80 1006.4
20260505063243 48 206 0.0 2.0 0.00 0.00 0.00 80 1006.4
20260505062343 48 206 0.0 1.0 0.00 0.00 0.00 79 1006.4